User: anonymous
Location: Long Point Provincial Park
(42.5794°N, 80.4103°W)
Time: 14:04:34
(UTC-04:00)
Language:

Iridium 19 - Orbit

View from above orbital plane
View from above orbital plane
View from above satellite
View from above satellite

Ground track
Ground track

The orbit data is extracted from the following two-line orbital elements,

1 24965U 97056A   14238.94389289  .00000162  00000-0  50725-4 0  9085
2 24965 086.3976 027.2336 0002124 109.7164 250.4261 14.34219517885601
Epoch (UTC): 26 August 2014 22:39:12
Eccentricity: 0.0002124
inclination: 86.3976°
perigee height: 776 km
apogee height: 779 km
right ascension of ascending node: 27.2336°
argument of perigee: 109.7164°
revolutions per day: 14.34219517
mean anomaly at epoch: 250.4261°
orbit number at epoch: 88560

The dashed part of the orbit path shows where the satellite is in the earth's shadow,  

DLR